Wind_Speed
51 54 52 47 48 51 52 53 54 51 47 50 52 52 50 44 39 33 32 34 32 31 30 33 38 41 44 46 43 41 41 41 41 40 38 38 37 36 39 43 43 44 43 42
52 55 49 51 52 51 52 54 55 53 52 55 55 53 52 47 41 35 31 30 31 31 31 32 35 37 39 42 45 45 44 43 43 43 41 39 37 37 39 41 41 43 42 39
54 53 49 50 51 48 49 49 51 54 55 55 55 54 53 46 39 36 35 36 35 32 32 31 33 37 39 41 44 44 45 45 45 45 44 43 41 40 39 37 39 41 42 42
48 46 45 46 46 47 51 46 48 50 54 57 54 56 53 50 46 41 39 38 37 33 31 31 33 37 39 40 39 38 40 41 42 43 44 44 44 44 43 43 43 42 42 43
50 49 48 50 47 48 52 54 53 53 56 59 61 59 55 57 58 55 49 45 45 46 47 44 40 40 42 42 42 40 40 41 40 41 43 45 46 46 47 47 47 46 46 45
55 54 55 54 54 52 51 55 59 59 60 64 63 61 56 59 61 62 60 59 59 58 58 58 53 45 42 43 43 43 44 43 42 40 40 43 45 46 47 47 48 48 48 46
60 57 56 56 56 54 53 54 59 64 68 69 66 68 62 62 61 63 63 64 66 65 63 59 56 52 47 46 48 49 47 45 44 44 44 42 44 46 47 46 44 46 48 48
66 64 61 59 57 58 59 59 60 63 65 67 68 72 68 64 61 61 64 66 65 64 63 60 57 53 50 46 46 51 51 51 49 47 46 46 45 44 46 45 43 44 46 46
70 73 73 71 67 64 64 63 59 59 62 65 67 70 69 65 62 60 63 65 60 57 58 64 61 52 41 42 44 44 46 50 52 52 47 44 47 46 45 47 49 49 50 49
72 76 76 76 75 75 72 69 69 69 71 74 74 70 67 57 58 60 61 61 59 55 55 58 58 51 49 51 51 51 54 53 51 53 53 51 51 51 50 52 55 56 57 58
69 72 75 78 77 75 74 73 71 70 68 70 71 70 66 60 58 60 63 64 64 59 54 53 52 55 57 56 55 53 54 54 56 58 61 61 61 59 56 57 60 64 66 68
73 76 77 72 70 71 73 71 69 68 69 68 68 65 60 58 61 63 67 67 67 67 65 62 63 64 63 62 59 57 55 56 60 61 62 64 64 60 60 65 67 69 70 69
71 73 75 73 70 73 74 70 68 65 62 60 61 63 57 60 65 69 71 72 73 73 73 72 72 73 69 65 63 63 65 66 65 63 66 65 67 66 66 69 71 72 72 68
66 65 68 73 70 67 67 66 64 64 64 65 66 70 71 75 74 68 64 66 71 74 74 73 74 77 73 70 67 68 69 72 71 67 68 68 67 71 74 76 76 74 74 73
65 66 66 66 65 66 66 66 65 65 66 71 72 75 77 73 69 66 65 65 69 69 70 72 72 75 78 80 79 75 74 78 79 80 81 81 78 75 76 75 75 73 69 73
67 68 68 69 66 68 71 70 68 68 70 72 71 74 75 74 74 73 70 71 72 68 71 73 74 81 87 87 87 86 84 83 83 87 92 92 87 82 79 80 81 81 78 77
71 71 72 76 72 75 78 73 73 74 74 73 75 76 78 78 76 76 74 76 79 78 74 74 78 79 81 85 88 93 91 89 87 88 88 88 84 84 84 85 87 87 84 81
76 74 77 80 77 81 79 76 78 79 79 79 79 80 81 81 81 80 79 80 83 85 85 84 84 80 79 80 83 83 84 87 92 90 88 86 85 85 87 89 91 91 87 84
77 75 77 79 80 82 79 77 78 79 81 82 83 83 83 82 81 80 81 81 81 81 82 83 84 83 80 78 77 81 87 91 91 89 92 91 89 87 86 88 91 94 96 92
75 74 75 77 78 80 78 77 78 80 82 82 84 83 83 83 82 81 82 83 83 84 85 84 84 83 84 87 87 86 85 85 84 87 89 87 86 85 83 83 84 82 85 91
72 70 71 73 75 77 75 74 75 76 77 79 80 81 82 84 84 84 84 86 86 86 86 87 90 91 91 92 90 86 83 83 82 79 76 75 78 78 78 77 76 72 70 71
67 66 67 69 71 73 72 70 71 72 73 75 77 78 80 83 85 86 85 85 85 85 85 86 88 88 92 97 103 102 98 93 91 91 84 79 74 71 71 74 72 70 72 70
61 60 63 64 66 64 64 65 67 69 71 73 75 78 80 81 82 83 84 84 85 86 87 88 89 88 87 91 97 102 105 108 104 102 99 94 84 78 71 70 68 68 72 71
54 55 57 59 59 59 60 62 64 66 68 70 73 74 76 77 78 80 82 83 84 84 86 87 87 87 87 87 90 94 99 104 110 111 108 106 105 99 89 83 78 79 78 79
51 52 54 58 57 58 60 61 63 64 64 65 66 67 69 71 72 75 77 78 79 80 81 81 82 82 82 83 85 88 92 96 99 106 115 117 117 116 107 102 99 97 94 90
48 50 54 56 54 56 58 57 58 58 59 59 60 60 62 66 70 73 75 76 76 76 75 76 76 78 78 78 78 80 84 88 92 95 100 106 111 113 110 106 101 99 97 92
Wind_Direction
280 279 283 285 281 280 281 282 283 286 286 281 280 283 286 286 289 295 295 293 292 288 284 279 274 271 269 268 271 274 275 274 272 270 266 264 265 266 266 265 265 266 267 267
279 278 281 279 278 278 281 282 283 284 282 282 285 286 286 288 291 294 293 292 293 290 283 278 274 272 271 270 271 274 273 272 269 266 264 266 268 271 273 271 267 264 264 263
276 278 278 279 279 279 279 280 282 282 282 282 285 285 286 288 290 289 290 291 293 293 288 283 277 276 273 272 273 273 270 267 265 264 264 265 267 270 271 268 264 261 260 256
276 276 275 277 280 281 278 278 278 281 283 283 279 280 282 288 291 287 284 287 288 286 283 286 285 283 285 283 280 278 272 266 265 264 262 261 262 266 269 267 263 262 261 261
280 278 273 271 274 277 278 277 278 279 279 279 279 281 285 290 291 290 288 290 291 290 289 286 283 280 283 284 282 278 272 266 261 261 264 264 263 262 265 266 265 263 261 261
277 276 273 271 270 273 275 274 274 275 277 277 280 283 279 280 282 286 290 295 297 294 291 291 292 286 279 277 278 276 273 270 265 259 259 263 265 264 263 262 262 262 262 262
274 274 274 272 271 271 273 274 274 274 277 280 280 277 272 275 279 283 288 292 293 291 288 288 290 288 285 279 276 273 269 267 264 260 260 260 263 265 267 268 266 264 263 261
281 277 276 275 277 277 277 278 278 278 278 278 276 273 270 274 277 280 284 287 287 287 287 286 284 285 285 280 273 271 268 265 263 264 267 266 263 262 264 266 267 266 264 262
283 282 281 279 278 278 278 278 279 280 277 275 272 275 276 275 277 278 280 282 287 285 282 279 277 278 274 269 264 260 259 265 267 265 261 261 261 257 257 259 261 263 264 265
281 280 276 277 277 278 280 281 281 280 282 281 280 276 274 274 271 273 275 276 275 273 273 273 273 271 270 270 265 257 256 255 256 256 253 253 250 250 254 258 258 257 259 262
280 281 279 277 278 282 281 279 278 280 279 278 280 281 280 278 275 273 271 269 269 272 273 271 269 270 268 265 262 254 255 260 257 252 250 252 251 249 255 262 261 260 262 264
279 281 283 284 282 282 280 280 280 282 282 281 280 280 283 278 275 272 271 271 270 268 267 267 267 272 272 268 261 253 250 258 258 252 248 250 250 249 253 258 260 258 259 262
277 278 279 278 279 282 282 280 279 278 275 272 271 273 271 265 269 272 271 269 268 267 267 267 266 266 266 261 257 254 256 260 256 252 250 251 253 255 255 255 258 259 257 258
277 275 275 280 281 277 274 274 274 273 269 267 267 272 273 273 276 275 272 270 269 268 270 270 267 265 265 259 256 259 261 259 259 259 258 257 262 263 262 260 258 257 258 258
278 278 277 276 275 273 274 273 272 270 271 274 275 274 273 274 274 275 275 272 266 265 266 265 265 264 263 261 256 253 256 258 259 260 261 264 266 265 263 260 259 255 258 262
276 278 279 277 276 276 275 276 276 274 276 276 273 271 272 273 275 275 270 263 262 265 265 265 268 267 265 262 260 257 258 264 266 265 264 265 266 264 258 255 256 256 260 263
274 275 275 274 274 273 272 277 277 275 274 272 272 274 276 278 278 277 271 265 265 268 272 272 270 266 264 264 265 264 264 266 269 270 268 267 265 261 257 256 254 253 255 259
272 272 271 272 271 270 275 275 273 274 275 276 277 278 278 278 278 279 276 272 270 270 270 269 270 265 261 264 265 264 266 268 269 270 271 266 259 256 254 252 251 250 251 254
270 271 270 271 271 272 273 274 275 276 278 279 279 280 280 280 280 280 280 278 275 272 270 268 266 264 261 263 265 265 268 268 265 268 271 266 258 255 254 252 254 253 251 252
269 270 271 271 271 272 273 273 274 275 276 277 278 278 279 279 278 277 276 275 275 274 273 271 268 267 266 264 262 262 262 261 262 265 265 262 260 259 257 259 260 258 256 256
271 272 273 274 274 275 276 276 277 277 278 278 279 280 280 280 281 281 279 278 277 276 273 271 268 266 264 264 264 260 259 261 261 262 261 260 262 261 258 257 259 265 268 266
272 272 273 273 273 276 277 279 279 278 277 277 278 279 280 281 282 283 282 283 282 281 279 276 273 270 268 266 265 263 261 263 263 263 264 264 261 257 257 256 261 269 272 267
275 275 273 273 275 277 278 277 276 276 277 278 279 281 282 282 283 283 283 282 282 281 280 278 277 275 272 270 269 266 264 262 261 259 259 258 257 256 262 266 269 272 273 269
274 274 276 278 279 279 278 277 277 278 280 282 283 283 284 285 285 285 284 284 283 282 282 282 281 279 275 272 270 268 266 263 259 255 255 258 261 261 264 268 268 268 270 269
279 281 282 280 281 280 277 279 282 284 286 286 286 286 287 287 288 288 288 288 288 288 288 287 286 283 280 276 273 271 269 267 263 258 256 257 262 265 264 263 263 265 265 265
285 284 283 283 283 284 284 284 285 286 287 288 291 292 292 293 293 293 293 294 294 293 292 290 287 285 283 280 276 274 271 269 267 264 261 259 259 262 263 263 262 262 261 259
Height
5799 5795 5796 5799 5793 5789 5785 5782 5779 5783 5786 5780 5776 5773 5776 5780 5781 5784 5783 5780 5778 5778 5776 5773 5770 5767 5765 5764 5765 5765 5766 5767 5767 5767 5767 5766 5767 5768 5768 5768 5768 5768 5768 5769
5789 5785 5789 5785 5782 5779 5776 5774 5771 5771 5772 5767 5764 5761 5765 5770 5773 5772 5772 5771 5767 5766 5766 5763 5759 5757 5755 5755 5756 5757 5757 5757 5758 5758 5758 5758 5758 5758 5758 5758 5758 5758 5758 5758
5777 5777 5777 5773 5771 5769 5767 5765 5763 5759 5759 5758 5754 5748 5750 5756 5764 5764 5762 5761 5760 5758 5754 5752 5750 5748 5747 5746 5746 5747 5747 5747 5746 5748 5750 5750 5749 5748 5748 5748 5746 5746 5746 5747
5765 5768 5766 5761 5760 5758 5754 5755 5752 5751 5748 5744 5744 5736 5739 5746 5750 5751 5751 5751 5748 5748 5745 5744 5742 5740 5738 5738 5737 5738 5737 5736 5736 5736 5738 5739 5740 5739 5739 5737 5735 5735 5736 5738
5755 5755 5754 5751 5750 5744 5745 5743 5741 5739 5737 5735 5729 5731 5734 5733 5732 5730 5733 5738 5739 5738 5736 5736 5734 5732 5730 5728 5728 5728 5727 5727 5725 5725 5726 5728 5729 5729 5728 5726 5725 5725 5725 5727
5741 5740 5739 5737 5736 5734 5731 5728 5725 5723 5722 5724 5725 5726 5730 5726 5723 5719 5719 5720 5719 5717 5715 5716 5718 5720 5719 5718 5717 5717 5717 5717 5716 5714 5713 5714 5716 5716 5715 5714 5714 5714 5713 5714
5726 5725 5725 5724 5721 5720 5716 5714 5710 5705 5705 5712 5714 5709 5718 5716 5718 5716 5714 5711 5706 5699 5695 5697 5699 5702 5703 5704 5704 5704 5703 5705 5705 5703 5701 5700 5701 5703 5703 5704 5703 5703 5703 5702
5709 5714 5714 5712 5709 5706 5702 5699 5698 5690 5688 5690 5692 5690 5708 5709 5709 5709 5702 5694 5690 5685 5682 5682 5682 5683 5684 5687 5688 5689 5691 5691 5691 5691 5690 5690 5688 5689 5690 5691 5691 5692 5692 5692
5689 5693 5697 5695 5692 5690 5686 5684 5682 5674 5666 5662 5669 5674 5684 5700 5700 5697 5687 5678 5672 5670 5668 5666 5667 5668 5667 5670 5673 5675 5676 5676 5675 5673 5673 5674 5675 5675 5675 5676 5677 5677 5677 5677
5670 5670 5681 5678 5678 5677 5671 5667 5663 5656 5649 5642 5643 5653 5663 5679 5685 5678 5667 5657 5652 5651 5651 5652 5652 5652 5653 5653 5654 5654 5655 5656 5657 5656 5656 5655 5655 5657 5659 5660 5661 5661 5660 5660
5652 5646 5653 5655 5660 5660 5654 5648 5644 5638 5633 5627 5622 5627 5646 5654 5656 5646 5637 5634 5636 5639 5639 5639 5638 5637 5636 5637 5639 5638 5638 5641 5640 5639 5639 5640 5640 5641 5643 5644 5644 5643 5642 5641
5639 5631 5628 5638 5641 5639 5633 5629 5629 5623 5616 5611 5604 5607 5626 5627 5624 5620 5620 5620 5620 5620 5620 5620 5620 5620 5619 5621 5621 5621 5621 5620 5621 5621 5621 5623 5624 5624 5627 5628 5626 5623 5623 5622
5623 5618 5611 5614 5622 5622 5614 5613 5611 5607 5602 5596 5589 5592 5605 5593 5595 5602 5603 5602 5601 5600 5600 5599 5599 5598 5598 5600 5601 5601 5601 5601 5603 5604 5606 5606 5606 5606 5607 5608 5608 5607 5603 5602
5604 5600 5598 5596 5596 5598 5595 5596 5595 5592 5585 5578 5576 5574 5576 5572 5578 5579 5579 5579 5578 5578 5580 5580 5580 5580 5578 5580 5581 5582 5581 5582 5582 5582 5582 5584 5585 5586 5588 5588 5587 5587 5586 5585
5588 5582 5581 5581 5581 5576 5575 5576 5578 5575 5568 5561 5561 5556 5549 5555 5558 5557 5556 5556 5556 5556 5557 5558 5558 5559 5558 5558 5559 5559 5558 5557 5558 5559 5560 5561 5564 5565 5566 5565 5564 5566 5567 5568
5572 5565 5562 5563 5566 5558 5553 5557 5560 5557 5554 5544 5540 5536 5533 5534 5536 5536 5535 5535 5534 5533 5534 5535 5535 5535 5533 5532 5532 5533 5534 5532 5532 5532 5532 5534 5536 5540 5541 5542 5542 5544 5546 5546
5553 5549 5544 5540 5546 5535 5531 5544 5540 5534 5530 5525 5524 5522 5516 5513 5513 5513 5514 5513 5511 5510 5510 5511 5511 5509 5508 5505 5504 5505 5505 5506 5508 5508 5507 5508 5511 5514 5517 5519 5520 5521 5520 5521
5531 5531 5524 5517 5520 5511 5521 5524 5516 5511 5506 5505 5501 5496 5494 5493 5492 5490 5490 5489 5489 5488 5487 5486 5485 5484 5483 5481 5480 5480 5478 5478 5480 5481 5481 5483 5485 5488 5492 5494 5495 5497 5498 5500
5512 5511 5503 5499 5495 5492 5502 5501 5493 5489 5484 5483 5477 5474 5471 5470 5471 5470 5465 5462 5463 5462 5460 5459 5458 5457 5455 5453 5453 5455 5455 5453 5452 5455 5457 5457 5459 5462 5465 5468 5470 5472 5475 5476
5493 5490 5486 5479 5475 5471 5480 5481 5474 5472 5466 5462 5454 5451 5448 5445 5447 5449 5444 5439 5438 5436 5434 5432 5430 5428 5426 5424 5424 5426 5425 5424 5424 5426 5427 5427 5428 5431 5435 5439 5442 5445 5448 5451
5475 5470 5467 5463 5454 5452 5459 5459 5454 5450 5444 5437 5432 5428 5423 5418 5417 5418 5418 5414 5411 5410 5408 5405 5403 5404 5402 5397 5393 5394 5395 5394 5393 5394 5396 5398 5400 5404 5407 5412 5416 5419 5422 5426
5453 5453 5451 5445 5439 5439 5439 5439 5434 5426 5420 5418 5412 5407 5402 5399 5396 5392 5389 5387 5382 5379 5378 5374 5370 5372 5372 5368 5361 5360 5364 5363 5363 5365 5369 5373 5376 5380 5380 5384 5388 5392 5398 5402
5434 5436 5427 5425 5426 5426 5424 5417 5410 5403 5399 5399 5394 5390 5382 5378 5375 5370 5365 5362 5357 5351 5346 5341 5337 5338 5341 5336 5329 5328 5329 5327 5330 5336 5342 5347 5347 5350 5352 5356 5363 5367 5372 5378
5418 5416 5412 5410 5412 5407 5401 5396 5390 5386 5383 5382 5376 5369 5362 5355 5351 5346 5341 5336 5330 5325 5318 5311 5306 5304 5305 5303 5297 5293 5291 5290 5295 5302 5308 5313 5317 5321 5324 5331 5341 5346 5350 5355
5405 5401 5398 5391 5393 5385 5383 5380 5374 5370 5366 5362 5358 5351 5343 5336 5330 5323 5319 5313 5305 5299 5294 5284 5276 5271 5270 5268 5266 5262 5257 5255 5259 5266 5273 5278 5281 5286 5294 5303 5313 5321 5327 5333
5391 5386 5377 5374 5375 5365 5364 5365 5358 5354 5349 5344 5338 5334 5327 5319 5311 5304 5298 5291 5282 5274 5267 5258 5250 5241 5237 5235 5234 5230 5225 5222 5223 5228 5235 5241 5248 5253 5260 5270 5281 5290 5300 5307